VEP-3

operational
NORAD ID: 27368 Int'l Des: 2002-003 Owner: NASDA Country: J
MEOELLIPTICALHEO_ELLIPTICAL

About VEP-3

Description loading...

Live Position

Loading 3D Globe...

Upcoming Passes

Altitude History

Altitude vs Time

uPlot chart will show altitude changes over time

Two-Line Element Set

1 27368U 02003B 26062.16963300 .00000567 00000-0 19223-2 0 9992
2 27368 28.7403 288.3986 7144482 244.4013 28.3851 2.37055635203518
Epoch: Mar 3, 2026 • Age: 35 hours

Current Status

Altitude 14044.4 km
Velocity 4.72 km/s
Sub-Earth Point 5.84°N, 24.4°W
Launch Date Feb 4, 2002
Age 24 years
Type other

Technical Details

Classification Payload
Mass 330.00 kg
Dry Mass 330.00 kg
Total Mass 330.00 kg
Length 6.10 m
Diameter 4.00 m
Span 6.10 m
Shape Cyl + Cone
Manufacturer NASDA
Bus Type VEP
Phase Status In Orbit
Owner/State NASDA/J

Large Constellations

Loading constellations...